Qianfan 05-10

operational
NORAD ID: 63168 Int'l Des: 2025-046 Owner: YUANX Country: CN Constellation: qianfan
LEOCIRCULARPOLAR

Über Qianfan 05-10

Beschreibung wird geladen...

Live-Position

3D-Globus wird geladen...

Nächste Überflüge

Höhenverlauf

Altitude vs Time

uPlot chart will show altitude changes over time

Zweizeiliger Elementsatz

1 63168U 25046K 25303.86176742 .00000098 00000-0 13302-3 0 9994
2 63168 88.9769 324.3577 0011007 249.4527 110.5443 13.50972392 41684
Epoch: 30. Okt. 2025 • Age: 9 hours

Aktueller Status

Höhe 1085.2 km
Geschwindigkeit 7.31 km/s
Subsatellitenpunkt 63.63°N, 10.28°E
Startdatum 11. März 2025
Alter 0.6 years
Typ internet

Technische Details

Klassifizierung Payload
Masse 267.00 kg
Trockenmasse 267.00 kg
Gesamtmasse 267.00 kg
Länge 0.30 m
Durchmesser 3.00 m
Spannweite 10.00 m
Form Box+pan
Hersteller GESIH
Bus-Typ Qianfan
Phasenstatus In Orbit
Besitzer/Staat YUANX/CN

Große Konstellationen

Loading constellations...